Find SpaceVan-001

NORAD ID: 58295 Int'l Des: 2023-174 Owner: EXOTR Country: F operational
LEOCIRCULARRETROGRADE

Current View

Loading 3D Globe...

About SpaceVan-001

SpaceVan-001 (NORAD 58295) is a satellite launched Nov 11, 2023 by EXOTR of F. It operates in LEO, CIRCULAR, RETROGRADE orbit with a mass of 125.00 kg.

Upcoming Passes

Passes for default location (London). Set your location on the main map for personalized predictions.

Altitude History

Loading altitude history...

Two-Line Element Set

1 58295U 23174AR 26163.83408818 .00016160 00000-0 21675-3 0 9992
2 58295 97.4002 260.7168 0009197 93.9218 266.3089 15.57989805145462
Epoch: Jun 12, 2026 • Age: 14 hours

Current Status

Altitude 398.3 km
Velocity 7.67 km/s
Sub-Earth Point -5.78°S, 147.66°W
Launch Date Nov 11, 2023
Age 2.5 years
Type other

Technical Details

Classification Payload
Mass 125.00 kg
Dry Mass 120.00 kg
Total Mass 125.00 kg
Length 0.30 m
Diameter 0.50 m
Span 3.50 m
Shape Box+ 2 pan
Manufacturer NANAV
Bus Type MP42
Phase Status In Orbit
Owner/State EXOTR/F

Most Searched